Location: Luxembourg
(49.6117°N, 6.1300°E)
Time: 02:30:12
(UTC+01:00)

N. Korean satellite - Pass Details

Date: 10 December 2021
Orbit: 446 x 492 km, 97.3° (Epoch: 16 January)

Event Time Altitude Azimuth Distance (km) Brightness Sun altitude
Rises 05:59:14 0° 13° (NNE) 2,463 10.2 -21.8°
Reaches altitude 10° 06:01:16 10° 13° (NNE) 1,585 9.2 -21.5°
Enters shadow 06:03:07 30° 14° (NNE) 830 7.7 -21.2°
Exits shadow 06:05:41 43° 192° (SSW) 643 7.1 -20.8°
Drops below altitude 10° 06:08:02 10° 194° (SSW) 1,574 9.1 -20.4°
Sets 06:10:04 0° 194° (SSW) 2,445 10.1 -20.1°
